Lid_Strength_Index
7 7 7 7 7 6 6 6 6 5 5 5 4 4 4 4 4 7 9 8 11 17 15 12 11 14 14 15 17 15 16 16 20 22 23 22 20 18 17 15 16 17 21 25 23 28 23 12 11 14 12 11 9 9
7 7 7 7 7 6 6 6 6 6 5 5 4 4 4 4 5 7 10 8 9 13 14 11 10 10 11 11 14 15 15 16 17 21 21 20 20 19 17 20 13 18 16 18 18 18 13 11 11 10 9 10 9 8
7 7 7 7 7 6 6 6 6 6 6 5 4 4 5 5 5 7 10 10 12 15 14 14 14 11 9 9 9 16 16 13 15 15 18 19 20 17 21 18 16 13 13 18 16 13 13 12 11 10 9 9 7 7
7 7 7 7 6 6 6 6 6 6 6 6 5 5 5 5 5 7 10 10 12 15 20 16 10 12 9 9 10 10 11 12 12 12 18 21 20 15 18 17 16 13 14 15 16 14 13 12 11 11 10 8 7 7
7 7 7 6 6 6 6 6 6 6 5 5 5 5 5 4 5 8 10 10 9 14 18 16 12 11 10 10 10 10 11 13 12 13 15 18 15 14 14 16 15 12 14 16 17 13 14 13 11 10 10 9 8 8
7 7 6 6 6 6 6 6 6 5 5 5 5 5 5 5 7 11 15 11 9 10 17 19 14 13 12 11 11 12 12 14 16 16 17 16 13 13 16 17 12 13 12 11 13 11 11 10 9 9 10 9 8 7
6 6 6 6 6 6 6 5 5 5 5 5 5 5 6 7 11 14 14 12 7 10 17 18 17 14 11 12 14 16 14 16 14 14 15 15 15 12 16 17 14 13 12 11 11 11 12 11 11 9 9 8 7 6
6 6 6 6 5 5 5 6 5 5 5 5 5 5 6 7 8 12 11 7 7 11 13 17 18 16 12 17 17 15 13 12 11 14 13 16 14 13 15 14 12 11 11 11 10 10 10 10 9 9 9 9 8 8
6 6 6 6 6 6 6 6 6 6 6 6 6 7 10 12 15 13 7 8 9 14 21 17 19 23 13 16 17 17 17 17 16 14 14 14 15 17 14 13 12 11 12 11 10 10 10 10 10 9 9 8 8 8
6 6 6 6 6 6 6 6 6 6 6 7 10 14 19 13 8 8 12 13 16 13 13 16 16 18 15 16 15 18 16 17 22 17 16 16 16 12 12 11 11 10 10 10 12 12 11 11 10 8 8 7 7 7
7 7 7 7 7 7 7 6 6 7 9 13 15 13 10 7 11 15 17 16 15 17 15 15 16 17 14 16 16 16 16 15 19 17 17 18 16 13 10 9 8 8 9 9 9 9 9 9 9 8 7 7 7 7
8 8 7 7 7 7 7 6 7 11 12 12 10 8 10 14 17 18 20 16 17 18 16 16 16 16 15 14 16 14 15 16 18 15 16 19 15 11 10 9 8 7 7 7 7 8 8 7 7 7 7 7 7 8
7 8 8 8 8 8 7 7 7 7 8 11 13 14 17 16 24 21 25 18 19 16 13 14 16 15 15 14 16 17 21 19 15 21 19 15 12 11 10 9 8 8 7 7 6 6 6 6 6 7 8 8 8 8
8 8 7 7 7 7 7 7 7 9 11 14 17 22 21 21 18 17 16 16 13 13 13 15 15 13 12 12 13 16 14 15 19 23 18 13 11 11 9 9 9 8 8 8 7 7 7 7 7 8 10 10 11 10
8 7 7 6 6 6 7 7 7 11 14 15 16 22 19 15 15 15 13 12 12 12 14 16 15 14 15 14 11 11 13 16 16 19 14 11 10 10 11 8 8 8 8 8 7 8 8 8 9 9 9 9 9 11
7 7 8 6 6 6 6 8 10 12 16 15 14 16 15 17 18 16 14 14 12 13 14 14 14 15 15 13 13 13 13 16 13 12 11 11 11 10 9 7 8 7 7 7 7 7 7 8 8 9 9 8 7 9
7 9 6 5 6 6 7 10 12 18 15 14 18 14 15 15 16 15 13 13 11 14 19 15 19 14 12 14 13 11 15 11 9 8 7 7 8 8 7 7 7 7 7 7 6 7 7 7 8 9 8 7 8 9
9 7 5 6 7 8 10 11 13 13 14 14 18 17 14 13 14 14 12 12 13 13 13 15 13 14 17 15 14 10 10 10 8 7 7 7 6 7 7 8 7 8 8 8 7 8 8 8 7 7 7 7 7 9
7 7 5 5 7 11 12 11 12 16 14 12 12 12 12 13 12 11 11 11 11 10 13 12 14 15 14 11 10 9 9 8 9 9 8 7 7 7 8 8 8 8 8 8 8 8 7 7 6 6 6 8 8 8
5 5 5 5 7 14 13 12 9 12 13 13 11 12 12 12 11 12 12 10 11 11 14 14 12 12 11 9 9 8 8 8 9 12 12 10 8 8 7 7 7 7 7 7 8 9 8 8 7 7 7 8 8 8
6 6 4 7 10 11 12 12 12 11 11 13 11 12 14 11 12 14 13 10 13 13 14 11 11 9 8 8 7 7 7 7 8 7 7 10 9 8 7 7 6 6 7 7 8 8 8 8 7 8 10 12 9 7
7 4 8 7 11 13 14 10 12 11 12 12 12 11 15 20 20 16 11 14 15 13 12 11 10 9 9 8 7 6 6 5 5 6 8 9 10 9 8 7 7 7 7 7 7 7 7 6 6 5 6 8 8 9
5 7 9 9 16 16 15 10 12 11 16 15 12 14 17 17 12 10 18 13 14 12 11 10 8 8 8 7 6 6 6 6 8 10 9 9 9 8 7 7 7 7 7 6 6 7 6 5 7 7 9 11 12 15
6 12 16 16 15 20 12 16 11 12 13 14 15 17 15 16 12 16 17 17 14 10 10 8 8 10 9 9 10 9 8 8 9 10 10 11 10 8 8 8 7 6 6 5 5 7 7 8 11 11 15 17 20 20
17 18 16 21 17 19 21 21 17 15 21 20 19 22 19 14 20 23 18 14 15 14 12 10 10 10 10 11 11 10 9 8 9 11 9 10 10 9 8 8 8 8 7 6 7 10 14 17 18 18 17 21 16 19
22 21 19 18 22 19 19 22 23 21 20 21 19 15 15 19 22 20 17 16 16 14 15 14 13 11 10 9 8 7 6 7 10 11 10 11 11 8 8 9 10 9 9 7 8 9 12 15 18 17 20 17 20 23
22 20 12 10 11 11 18 17 13 18 23 21 19 21 20 22 22 16 13 12 11 10 9 8 9 9 8 7 8 7 6 8 8 8 10 12 11 10 9 9 9 9 9 8 10 12 15 17 19 20 22 24 24 24
15 14 16 15 15 11 20 20 21 20 17 13 16 20 18 18 17 13 11 10 9 7 7 6 6 6 6 6 6 7 8 11 13 12 11 10 10 10 11 8 9 8 12 15 16 18 19 21 22 23 23 23 23 23
13 12 13 20 21 18 17 16 16 13 10 12 16 17 14 11 9 7 6 6 6 8 7 7 6 6 7 6 7 9 13 13 12 13 12 11 15 10 13 11 10 12 15 14 14 17 19 21 21 22 22 22 21 26
16 10 16 22 18 16 14 12 14 14 10 9 9 9 8 10 8 6 7 6 7 7 6 6 6 7 9 8 8 9 11 9 8 7 8 10 11 14 13 12 11 12 15 19 20 21 17 22 20 24 25 26 27 28
11 11 17 16 17 13 9 14 19 17 17 13 10 10 9 8 8 5 7 9 8 7 7 8 8 8 9 9 12 10 8 11 11 9 8 13 16 13 13 13 13 13 16 20 22 24 25 26 27 28 27 27 28 29
18 15 15 19 16 11 15 16 17 16 16 18 9 16 17 19 16 11 10 15 14 13 14 13 11 9 10 8 7 9 11 14 14 13 13 12 12 14 14 16 17 18 20 21 24 25 26 27 28 29 29 29 29 28
20 20 18 16 14 15 18 14 15 18 21 21 14 11 15 15 16 13 15 15 14 14 13 12 11 12 14 18 18 18 16 16 14 11 12 13 15 16 18 21 22 23 22 25 27 26 26 27 29 30 30 29 28 27